Météo par heure à Justynowka

Ce jour, 20 Juin, Dimanche

Heure Température Précipitation Vent Pression Humidité
00:00 +18°C° 0 mm 2 m/s 741 mmHg 93%
01:00 +17°C° 0 mm 2 m/s 741 mmHg 92%
02:00 +18°C° 0 mm 1 m/s 741 mmHg 92%
03:00 +17°C° 0 mm 2 m/s 740 mmHg 93%
04:00 +16°C° 0 mm 2 m/s 740 mmHg 93%
05:00 +16°C° 0 mm 2 m/s 740 mmHg 93%
06:00 +18°C° 0 mm 2 m/s 740 mmHg 89%
07:00 +19°C° 0 mm 3 m/s 740 mmHg 84%
08:00 +21°C° 0 mm 3 m/s 740 mmHg 80%
09:00 +22°C° 0 mm 3 m/s 740 mmHg 76%
10:00 +24°C° 0 mm 3 m/s 740 mmHg 73%
11:00 +26°C° 0 mm 3 m/s 740 mmHg 70%
12:00 +26°C° 0 mm 3 m/s 740 mmHg 68%
13:00 +27°C° 0 mm 3 m/s 739 mmHg 67%
14:00 +27°C° 0 mm 3 m/s 739 mmHg 66%
15:00 +27°C° 0.3 mm 3 m/s 739 mmHg 67%
16:00 +27°C° 0.3 mm 4 m/s 738 mmHg 69%
17:00 +27°C° 0.3 mm 4 m/s 738 mmHg 71%
18:00 +25°C° 0.9 mm 4 m/s 738 mmHg 76%
19:00 +24°C° 0.9 mm 3 m/s 738 mmHg 82%
20:00 +22°C° 0.9 mm 3 m/s 738 mmHg 87%
21:00 +21°C° 0 mm 3 m/s 738 mmHg 89%
22:00 +20°C° 0 mm 3 m/s 737 mmHg 91%
23:00 +19°C° 0 mm 3 m/s 737 mmHg 93%

Demain, 21 Juin, Lundi

Heure Température Précipitation Vent Pression Humidité
00:00 +18°C° 0 mm 2 m/s 737 mmHg 94%
01:00 +18°C° 0 mm 2 m/s 737 mmHg 95%
02:00 +18°C° 0 mm 2 m/s 737 mmHg 97%
03:00 +17°C° 0 mm 2 m/s 737 mmHg 97%
04:00 +17°C° 0 mm 2 m/s 737 mmHg 97%
05:00 +17°C° 0 mm 2 m/s 737 mmHg 97%
06:00 +19°C° 0 mm 3 m/s 737 mmHg 94%
07:00 +20°C° 0 mm 3 m/s 737 mmHg 90%
08:00 +21°C° 0 mm 4 m/s 737 mmHg 86%
09:00 +22°C° 0 mm 4 m/s 737 mmHg 82%
10:00 +23°C° 0 mm 4 m/s 737 mmHg 77%
11:00 +25°C° 0 mm 5 m/s 737 mmHg 72%
12:00 +26°C° 0 mm 4 m/s 736 mmHg 72%
13:00 +26°C° 0 mm 4 m/s 736 mmHg 72%
14:00 +26°C° 0 mm 3 m/s 736 mmHg 72%
15:00 +27°C° 0.1 mm 3 m/s 736 mmHg 70%
16:00 +27°C° 0.1 mm 3 m/s 736 mmHg 68%
17:00 +28°C° 0.1 mm 4 m/s 736 mmHg 66%
18:00 +26°C° 0.1 mm 3 m/s 736 mmHg 73%
19:00 +25°C° 0.1 mm 3 m/s 736 mmHg 79%
20:00 +24°C° 0.1 mm 3 m/s 735 mmHg 85%
21:00 +22°C° 0 mm 3 m/s 735 mmHg 88%
22:00 +21°C° 0 mm 3 m/s 735 mmHg 91%
23:00 +20°C° 0 mm 3 m/s 736 mmHg 94%

Après-demain, 22 Juin, Mardi

Heure Température Précipitation Vent Pression Humidité
00:00 +20°C° 0 mm 3 m/s 736 mmHg 94%
01:00 +19°C° 0 mm 3 m/s 735 mmHg 94%
02:00 +19°C° 0 mm 3 m/s 735 mmHg 94%
03:00 +19°C° 0 mm 3 m/s 736 mmHg 94%
04:00 +18°C° 0 mm 2 m/s 736 mmHg 94%
05:00 +18°C° 0 mm 2 m/s 736 mmHg 94%
06:00 +20°C° 0 mm 2 m/s 736 mmHg 88%
07:00 +22°C° 0 mm 3 m/s 736 mmHg 83%
08:00 +24°C° 0 mm 3 m/s 736 mmHg 77%
09:00 +26°C° 0 mm 2 m/s 737 mmHg 73%
10:00 +27°C° 0 mm 2 m/s 737 mmHg 68%
11:00 +28°C° 0 mm 2 m/s 737 mmHg 64%
12:00 +29°C° 0 mm 2 m/s 737 mmHg 62%
13:00 +30°C° 0 mm 2 m/s 737 mmHg 60%
14:00 +30°C° 0 mm 2 m/s 737 mmHg 58%
15:00 +30°C° 0.1 mm 3 m/s 737 mmHg 60%
16:00 +30°C° 0.1 mm 3 m/s 737 mmHg 61%
17:00 +30°C° 0.1 mm 3 m/s 737 mmHg 63%
18:00 +28°C° 0.4 mm 2 m/s 737 mmHg 69%
19:00 +27°C° 0.4 mm 2 m/s 737 mmHg 75%
20:00 +25°C° 0.4 mm 2 m/s 738 mmHg 80%
21:00 +25°C° 0 mm 2 m/s 738 mmHg 83%
22:00 +24°C° 0 mm 2 m/s 738 mmHg 86%
23:00 +23°C° 0 mm 2 m/s 738 mmHg 88%

23 Juin, Mercredi

Heure Température Précipitation Vent Pression Humidité
00:00 +23°C° 0 mm 2 m/s 738 mmHg 89%
01:00 +22°C° 0 mm 1 m/s 738 mmHg 90%
02:00 +22°C° 0 mm 1 m/s 738 mmHg 91%
03:00 +22°C° 0 mm 1 m/s 738 mmHg 92%
04:00 +21°C° 0 mm 2 m/s 738 mmHg 92%
05:00 +20°C° 0 mm 2 m/s 738 mmHg 93%
06:00 +23°C° 0 mm 2 m/s 738 mmHg 88%
07:00 +24°C° 0 mm 2 m/s 738 mmHg 83%
08:00 +26°C° 0 mm 2 m/s 738 mmHg 78%
09:00 +27°C° 0 mm 2 m/s 739 mmHg 73%
10:00 +28°C° 0 mm 3 m/s 739 mmHg 67%
11:00 +30°C° 0 mm 3 m/s 739 mmHg 62%
12:00 +30°C° 0 mm 3 m/s 739 mmHg 59%
13:00 +31°C° 0 mm 3 m/s 739 mmHg 57%
14:00 +33°C° 0 mm 3 m/s 739 mmHg 55%
15:00 +33°C° 0 mm 3 m/s 739 mmHg 56%
16:00 +33°C° 0 mm 3 m/s 739 mmHg 57%
17:00 +32°C° 0 mm 2 m/s 739 mmHg 57%
18:00 +30°C° 0 mm 2 m/s 739 mmHg 65%
19:00 +29°C° 0 mm 2 m/s 739 mmHg 72%
20:00 +27°C° 0 mm 2 m/s 739 mmHg 79%
21:00 +26°C° 0.6 mm 2 m/s 739 mmHg 82%
22:00 +25°C° 0.6 mm 1 m/s 740 mmHg 85%
23:00 +24°C° 0.6 mm 1 m/s 740 mmHg 88%

24 Juin, Jeudi

Heure Température Précipitation Vent Pression Humidité
00:00 +23°C° 0.5 mm 1 m/s 740 mmHg 90%
01:00 +21°C° 0.5 mm 2 m/s 740 mmHg 91%
02:00 +20°C° 0.5 mm 2 m/s 740 mmHg 93%
03:00 +20°C° 0 mm 2 m/s 740 mmHg 94%
04:00 +20°C° 0 mm 2 m/s 740 mmHg 94%
05:00 +19°C° 0 mm 2 m/s 741 mmHg 95%
06:00 +20°C° 0 mm 2 m/s 741 mmHg 91%
07:00 +23°C° 0 mm 2 m/s 741 mmHg 88%
08:00 +24°C° 0 mm 2 m/s 741 mmHg 85%
09:00 +26°C° 0 mm 1 m/s 741 mmHg 80%
10:00 +27°C° 0 mm 1 m/s 741 mmHg 74%
11:00 +29°C° 0 mm 1 m/s 742 mmHg 69%
12:00 +29°C° 0 mm 1 m/s 741 mmHg 66%
13:00 +30°C° 0 mm 1 m/s 741 mmHg 63%
14:00 +29°C° 0 mm 0 m/s 741 mmHg 60%
15:00 +31°C° 0.1 mm 1 m/s 741 mmHg 60%
16:00 +31°C° 0.1 mm 1 m/s 741 mmHg 61%
17:00 +31°C° 0.1 mm 1 m/s 741 mmHg 61%
18:00 +30°C° 0.1 mm 2 m/s 740 mmHg 68%
19:00 +28°C° 0.1 mm 2 m/s 740 mmHg 74%
20:00 +27°C° 0.1 mm 2 m/s 739 mmHg 81%
21:00 +26°C° 0 mm 2 m/s 739 mmHg 84%
22:00 +25°C° 0 mm 2 m/s 739 mmHg 87%
23:00 +24°C° 0 mm 2 m/s 739 mmHg 90%

25 Juin, Vendredi

Heure Température Précipitation Vent Pression Humidité
00:00 +23°C° 0 mm 2 m/s 739 mmHg 90%
01:00 +22°C° 0 mm 3 m/s 739 mmHg 91%
02:00 +22°C° 0 mm 3 m/s 738 mmHg 91%
03:00 +21°C° 0 mm 3 m/s 738 mmHg 89%
04:00 +21°C° 0 mm 3 m/s 738 mmHg 87%
05:00 +20°C° 0 mm 3 m/s 738 mmHg 84%
06:00 +22°C° 0.3 mm 3 m/s 738 mmHg 82%
07:00 +24°C° 0.3 mm 2 m/s 738 mmHg 79%
08:00 +26°C° 0.3 mm 2 m/s 738 mmHg 77%
09:00 +27°C° 0 mm 3 m/s 738 mmHg 73%
10:00 +28°C° 0 mm 4 m/s 739 mmHg 70%
11:00 +29°C° 0 mm 5 m/s 739 mmHg 66%
12:00 +29°C° 0 mm 5 m/s 739 mmHg 64%
13:00 +29°C° 0 mm 5 m/s 739 mmHg 63%
14:00 +29°C° 0 mm 5 m/s 740 mmHg 61%
15:00 +28°C° 0 mm 5 m/s 740 mmHg 62%
16:00 +27°C° 0 mm 5 m/s 740 mmHg 64%
17:00 +27°C° 0 mm 5 m/s 740 mmHg 65%
18:00 +25°C° 0 mm 5 m/s 740 mmHg 71%
19:00 +22°C° 0 mm 4 m/s 740 mmHg 76%
20:00 +21°C° 0 mm 4 m/s 740 mmHg 82%
21:00 +19°C° 0 mm 4 m/s 740 mmHg 84%
22:00 +18°C° 0 mm 4 m/s 741 mmHg 87%
23:00 +16°C° 0 mm 3 m/s 741 mmHg 89%
Voir plus

Nous avons besoin de votre consentement

Meteoprog et ses fournisseurs de services peuvent stocker et accéder à des données personnelles telles que des cookies, des identifiants d'appareils ou d'autres technologies similaires sur votre appareil et traiter ces données pour personnaliser le contenu et les publicités, ainsi que pour fournir des fonctionnalités de médias sociaux et analyser le trafic.

  • Stocker et/ou accéder à des informations sur votre appareil

    Des cookies, des identifiants d'appareils ou d'autres informations peuvent être stockés ou accessibles sur votre appareil aux fins indiquées ci-dessus.

  • Annonces et contenus personnalisés, mesure des annonces et des contenus, connaissance de l'audience et développement de produits

    Les annonces et le contenu peuvent être personnalisés en fonction d'un profil. D'autres données peuvent être ajoutées pour mieux personnaliser les annonces et le contenu. Les performances des publicités et du contenu peuvent être mesurées. Il est possible d'obtenir des informations sur le public qui a vu les publicités et le contenu. Ces données peuvent être utilisées pour développer ou améliorer l'expérience de l'utilisateur, les systèmes et les logiciels.

En cliquant sur "J'accepte", vous autorisez l'utilisation de cookies, des identifiants d'appareils, des balises web ou d'autres technologies similaires. Vos paramètres peuvent être modifiés dans le navigateur de votre appareil.

Dans certains cas, des intérêts légitimes peuvent être invoqués plutôt qu'un consentement. Vous pouvez en savoir plus à ce sujet dans notre Politique de confidentialité et de cookies.